Sirius FM-6

operational
NORAD ID: 39360 Int'l Des: 2013-058 Owner: SIRX Country: US
HEOCIRCULARGSOGEO

About Sirius FM-6

Description loading...

Live Position

Loading 3D Globe...

Upcoming Passes

Altitude History

Altitude vs Time

uPlot chart will show altitude changes over time

Two-Line Element Set

1 39360U 13058A 26062.56350060 -.00000031 00000-0 00000-0 0 9994
2 39360 0.0210 131.1225 0002889 51.7781 65.0931 1.00269195 45014
Epoch: Mar 3, 2026 • Age: 40 hours

Current Status

Altitude 35789.3 km
Velocity 3.07 km/s
Sub-Earth Point 0.03°N, 116.15°W
Launch Date Oct 25, 2013
Age 12.3 years
Type other

Technical Details

Classification Payload
Mass 3800.00 kg
Dry Mass 1500.00 kg
Total Mass 3800.00 kg
Length 5.20 m
Diameter 5.60 m
Span 24.80 m
Shape Box+2 panels
Manufacturer SSL
Bus Type FS-1300
Phase Status In Orbit
Owner/State SIRX/US

Large Constellations

Loading constellations...